Location: Bacharowice
(49.9333°N, 19.5833°E)
Time: 23:41:36
(UTC+00:00)

RESURS DK-1 - Pass Details

Date: 11 May 2021
Orbit: 553 x 564 km, 69.9° (Epoch: 21 June)

Event Time Altitude Azimuth Distance (km) Brightness Sun altitude
Rises 21:19:42 0° 335° (NNW) 2,766 7.5 -19.8°
Reaches altitude 10° 21:22:10 10° 347° (NNW) 1,867 6.2 -19.9°
Maximum altitude 21:25:49 29° 48° (NE) 1,064 4.0 -20.1°
Enters shadow 21:27:42 20° 90° (E) 1,325 4.1 -20.2°
